Weather in Michigan City

United States     41°43′08″N   86°54′15″W
В апреле 2022 года жителям России запретили посещать сайт meteo.paraplan.net по решению Генеральной прокуратуры. Аудитория сайта уменьшилась в 10 раз. Владельцы сайта не видят смысла в поддержке погодного сервера в таких условиях. Сайт будет закрыт в октябре.
temp.,
°C
wind,
m/s
gust,
m/s
humid.,
%
clouds,
%
prec.,
mm/h
press.,
hPa
HPBL,
m
4 october, tue
tue401:00+13sse334580 0.0 1025127
04:00+12sse33480 0.0 1024128
07:00+12s22500 0.0 1025145
10:00+14ssw22445 0.0 1025227
13:00+15nw22475 0.0 1023196
16:00+16nne22435 0.0 1021117
19:00+17e22480 0.0 102126
22:00+17ese22445 0.0 102151
5 october, wed
wed501:00+16s33455 0.0 102094
04:00+15ssw444728 0.0 1020123
07:00+14ssw4445100 0.0 1020139
10:00+17sw4539100 0.0 1020232
13:00+19wsw3342100 0.0 1019131
16:00+20nne1145100 0.0 1017163
19:00+19sse3345100 0.0 101622
22:00+18s4646100 0.0 101668
6 october, thu
thu601:00+17ssw584991 0.1 1015158
04:00+17ssw6125122 0.0 1014343
07:00+17ssw6105497 0.0 1014362
10:00+17wsw675599 0.0 1015376
13:00+18nw576299 0.0 1015313
16:00+17nne686989 0.0 1015330
19:00+14n131486100 0.8 1018806
22:00+13nne13147778 1.8 10211045
7 october, fri
fri701:00+12n121370100 1.9 10221383
04:00+11nne111271100 0.4 10231562
07:00+11nne10116684 0.6 10251417
10:00+11nne91068100 1.1 10271490
13:00+11n10967100 1.8 10271608
16:00+10nnw876597 0.2 10271332
19:00+10n785816 0.2 10271340
22:00+11nnw565345 0.0 10271461
8 october, sat
sat801:00+10nw55500 0.0 10271231
04:00+11wnw55490 0.0 10271191
07:00+10wsw78570 0.0 1027805
10:00+10wsw88540 0.0 1027700
13:00+13w79415 0.0 10251243
16:00+16w79355 0.0 10211528
19:00+16w810395 0.0 10211202
22:00+14sw712425 0.0 1020487